Volver al catálogo

STARLINK-11552

ActivoComunicacionesVLEO
NORAD 62907·PAYLOAD·🇺🇸 United States

Lanzado Feb 8, 2025 desde Cape Canaveral Space Force Station

Loading…

Próximos Pases (próximas 24 horas)

TLE

ActualizadoSource: CelesTrak SupGP

Época: Sep 14, 2026, 21:47 UTC

1 62907C 25027A   26257.90812500 -.00018296  00000+0 -14214-3 0  2576
2 62907  43.0004 287.2258 0001510 261.4128 330.3907 15.70840557    10

Sigue STARLINK-11552 en tiempo real con AllMySat

Download on the App Store